Weather History for Lyndonville, VT

Change the Weather History Date:

Sunday, February 3, 2013

  Actual Average (K1V4) Record (K1V4)
Temperature  
Mean Temperature 16 °F 17 °F  
Max Temperature 26 °F 28 °F 59 °F (1991)
Min Temperature 5 °F 6 °F -29 °F (1955)
Degree Days  
Heating Degree Days 50 48  
Month to date heating degree days 144  
Since 1 July heating degree days 4593  
Moisture  
Dew Point 6 °F    
Average Humidity 67    
Maximum Humidity 86    
Minimum Humidity 32    
Precipitation  
Precipitation 0.00 in 0.08 in 0.95 in (1983)
Month to date precipitation 0.25  
Year to date precipitation 2.76  
Sea Level Pressure  
Sea Level Pressure 29.84 in    
Wind  
Wind Speed 0 mph (ENE)    
Max Wind Speed 5 mph    
Max Gust Speed -    
Visibility 9 miles    
Events Snow    
T = Trace of Precipitation, MM = Missing Value Source: NWS Daily Summary

Daily Weather History Graph

Daily Weather History Graph

Search for Another Location

Airport:

Trip Planner

Search our weather history database for the weather conditions in past years. The results will help you decide how hot, cold, wet, or windy it might be!

Date:

Astronomy

Feb. 03, 2013 Rise Set
Actual Time 7:04 AM EST 5:00 PM EST
Civil Twilight 6:33 AM EST 5:31 PM EST
Nautical Twilight 5:58 AM EST 6:05 PM EST
Astronomical Twilight 5:24 AM EST 6:39 PM EST
Moon 12:29 AM EST (2/3) 10:33 AM EST (2/3)
Length of Visible Light 10h 57m
Length of Day
9h 56m
Waning Gibbous, 49% of the Moon is Illuminated
Feb 3
Waning Gibbous
Feb 10
New
Feb 17
First Quarter
Feb 25
Full
Mar 4
Last Quarter

Hourly Weather History & Observations

Time (EST) Temp. Windchill Dew Point Humidity Pressure Visibility Wind Dir Wind Speed Gust Speed Precip Events Conditions
12:15 AM 13.5 °F - 10.0 °F 86% 29.97 in 10.0 mi Calm Calm - N/A   Mostly Cloudy
12:35 AM 11.5 °F - 7.5 °F 84% 29.97 in 10.0 mi Calm Calm - N/A   Scattered Clouds
12:55 AM 11.3 °F - 7.7 °F 85% 29.97 in 10.0 mi Calm Calm - N/A   Clear
1:15 AM 10.2 °F - 6.3 °F 84% 29.97 in 10.0 mi Calm Calm - N/A   Mostly Cloudy
1:35 AM 11.1 °F 4.9 °F 7.3 °F 85% 29.96 in 10.0 mi East 3.5 mph - N/A   Overcast
1:55 AM 10.9 °F - 6.8 °F 83% 29.97 in 10.0 mi Calm Calm - N/A   Overcast
2:15 AM 9.3 °F - 5.4 °F 84% 29.97 in 10.0 mi Calm Calm - N/A   Mostly Cloudy
2:35 AM 9.1 °F - 5.2 °F 84% 29.96 in 10.0 mi Calm Calm - N/A   Overcast
2:55 AM 8.6 °F - 4.6 °F 84% 29.96 in 10.0 mi Calm Calm - N/A   Overcast
3:15 AM 9.5 °F - 5.5 °F 84% 29.96 in 10.0 mi Calm Calm - N/A   Overcast
3:35 AM 10.8 °F - 6.8 °F 84% 29.96 in 10.0 mi Calm Calm - N/A   Overcast
3:55 AM 11.3 °F - 7.7 °F 85% 29.95 in 2.0 mi Calm Calm - N/A Snow Light Snow
4:15 AM 11.7 °F - 7.5 °F 83% 29.95 in 3.0 mi Calm Calm - N/A   Haze
4:35 AM 11.1 °F - 7.3 °F 85% 29.95 in 10.0 mi Calm Calm - N/A   Overcast
4:55 AM 10.0 °F - 5.9 °F 83% 29.94 in 7.0 mi Calm Calm - N/A Snow Light Snow
5:15 AM 8.8 °F - 4.6 °F 83% 29.94 in 7.0 mi Calm Calm - N/A Snow Light Snow
5:35 AM 8.4 °F - 4.1 °F 83% 29.94 in 10.0 mi Calm Calm - N/A   Mostly Cloudy
5:55 AM 7.9 °F - 3.6 °F 83% 29.93 in 10.0 mi Calm Calm - N/A   Clear
6:15 AM 9.1 °F - 5.2 °F 84% 29.93 in 3.0 mi Calm Calm - N/A   Mostly Cloudy
6:35 AM 8.4 °F - 4.3 °F 83% 29.93 in 10.0 mi Calm Calm - N/A   Scattered Clouds
7:15 AM 7.0 °F - 2.5 °F 82% 29.93 in 10.0 mi Calm Calm - N/A   Clear
7:35 AM 5.9 °F - 1.8 °F 83% 29.93 in 10.0 mi Calm Calm - N/A   Clear
7:55 AM 7.3 °F - 3.0 °F 82% 29.93 in 10.0 mi Calm Calm - N/A   Clear
8:15 AM 9.1 °F - 5.0 °F 83% 29.93 in 10.0 mi Calm Calm - N/A   Scattered Clouds
8:35 AM 9.5 °F - 5.5 °F 84% 29.92 in 10.0 mi Calm Calm - N/A Snow Light Snow
8:55 AM 10.0 °F - 5.9 °F 83% 29.92 in 1.0 mi Calm Calm - N/A Snow Light Snow
9:35 AM 12.4 °F - 8.6 °F 85% 29.91 in 7.0 mi Calm Calm - N/A   Clear
9:55 AM 14.2 °F - 10.6 °F 86% 29.91 in 5.0 mi Calm Calm - N/A Snow Light Snow
10:15 AM 15.6 °F - 12.0 °F 86% 29.91 in 10.0 mi Calm Calm - N/A   Clear
10:35 AM 16.5 °F - 13.1 °F 86% 29.91 in 10.0 mi Calm Calm - N/A   Clear
10:55 AM 17.6 °F - 14.0 °F 86% 29.90 in 10.0 mi Calm Calm - N/A   Clear
11:15 AM 18.3 °F - 14.4 °F 85% 29.88 in 10.0 mi Calm Calm - N/A   Clear
11:35 AM 19.6 °F - 11.5 °F 71% 29.87 in 10.0 mi Calm Calm - N/A   Clear
11:55 AM 21.2 °F - 11.7 °F 67% 29.86 in 10.0 mi Calm Calm - N/A   Clear
12:15 PM 21.2 °F - 10.8 °F 64% 29.84 in 10.0 mi Calm Calm - N/A   Clear
12:35 PM 22.8 °F - 10.2 °F 59% 29.83 in 10.0 mi Calm Calm - N/A   Clear
12:55 PM 23.5 °F 19.1 °F 10.8 °F 58% 29.82 in 10.0 mi ESE 3.5 mph - N/A   Clear
1:15 PM 24.4 °F 20.1 °F 10.4 °F 55% 29.81 in 10.0 mi ENE 3.5 mph - N/A   Clear
1:35 PM 24.8 °F - 8.4 °F 50% 29.80 in 10.0 mi Calm Calm - N/A   Scattered Clouds
1:55 PM 25.0 °F - 8.2 °F 49% 29.79 in 10.0 mi Calm Calm - N/A   Scattered Clouds
2:15 PM 25.2 °F - 6.8 °F 46% 29.78 in 10.0 mi Calm Calm - N/A   Clear
2:35 PM 26.2 °F - 5.5 °F 41% 29.77 in 10.0 mi Calm Calm - N/A   Mostly Cloudy
2:55 PM 25.7 °F 20.1 °F 4.1 °F 40% 29.77 in 10.0 mi SSE 4.6 mph - N/A   Scattered Clouds
3:15 PM 24.8 °F - 0.7 °F 35% 29.77 in 10.0 mi Calm Calm - N/A   Clear
3:35 PM 24.6 °F - 0.9 °F 36% 29.76 in 10.0 mi Calm Calm - N/A   Clear
3:55 PM 23.9 °F - -0.2 °F 35% 29.76 in 10.0 mi Calm Calm - N/A   Clear
4:15 PM 23.9 °F - -2.4 °F 32% 29.75 in 10.0 mi Calm Calm - N/A   Clear
4:35 PM 23.9 °F - -1.8 °F 33% 29.74 in 10.0 mi Calm Calm - N/A   Clear
4:55 PM 23.4 °F - -0.4 °F 36% 29.74 in 10.0 mi Calm Calm - N/A   Clear
5:15 PM 21.9 °F - 3.7 °F 46% 29.74 in 10.0 mi Calm Calm - N/A   Clear
5:35 PM 22.1 °F - 1.8 °F 41% 29.74 in 10.0 mi Calm Calm - N/A   Clear
5:55 PM 21.7 °F - 1.0 °F 41% 29.73 in 10.0 mi Calm Calm - N/A   Clear
6:15 PM 20.5 °F - 0.7 °F 42% 29.73 in 10.0 mi Calm Calm - N/A   Clear
6:35 PM 19.4 °F - 2.7 °F 48% 29.72 in 10.0 mi Calm Calm - N/A   Scattered Clouds
6:55 PM 18.5 °F - 2.3 °F 49% 29.72 in 10.0 mi Calm Calm - N/A   Scattered Clouds
7:15 PM 18.1 °F - 3.7 °F 53% 29.71 in 10.0 mi Calm Calm - N/A   Clear
7:35 PM 18.5 °F - 3.6 °F 52% 29.71 in 10.0 mi Calm Calm - N/A   Clear
7:55 PM 17.2 °F - 3.7 °F 56% 29.71 in 10.0 mi Calm Calm - N/A   Scattered Clouds
8:15 PM 17.8 °F - 3.9 °F 55% 29.72 in 10.0 mi Calm Calm - N/A   Mostly Cloudy
8:55 PM 16.5 °F - 4.1 °F 58% 29.72 in 10.0 mi Calm Calm - N/A   Overcast
9:15 PM 16.7 °F - 6.3 °F 64% 29.72 in 10.0 mi Calm Calm - N/A   Overcast
9:35 PM 16.2 °F - 6.3 °F 65% 29.71 in 10.0 mi Calm Calm - N/A   Overcast
9:55 PM 16.7 °F - 6.4 °F 64% 29.70 in 10.0 mi Calm Calm - N/A   Overcast
10:15 PM 16.3 °F 10.8 °F 7.2 °F 67% 29.69 in 10.0 mi West 3.5 mph - N/A   Overcast
10:35 PM 16.7 °F 11.2 °F 6.8 °F 65% 29.69 in 10.0 mi WNW 3.5 mph - N/A   Overcast
10:55 PM 16.5 °F 11.0 °F 6.8 °F 66% 29.68 in 10.0 mi WNW 3.5 mph - N/A   Overcast
11:15 PM 14.9 °F - 7.0 °F 71% 29.67 in 10.0 mi Calm Calm - N/A   Overcast
11:35 PM 14.5 °F - 6.3 °F 70% 29.66 in 10.0 mi Calm Calm - N/A   Overcast
11:55 PM 14.9 °F - 6.6 °F 70% 29.66 in 10.0 mi Calm Calm - N/A   Overcast